owner,sensor,date,latitude,longitude,air_temperature,qcFlag 
DISL,ioos:station:DISL:PPTA:1,2017-05-01T00:00:00Z,30.2791,-87.5561,24.76,1111122 
DISL,ioos:station:DISL:PPTA:1,2017-05-01T00:30:00Z,30.2791,-87.5561,24.73,1111122 
DISL,ioos:station:DISL:PPTA:1,2017-05-01T01:00:00Z,30.2791,-87.5561,24.73,1111122 
DISL,ioos:station:DISL:PPTA:1,2017-05-01T01:30:00Z,30.2791,-87.5561,24.73,1111122 
DISL,ioos:station:DISL:PPTA:1,2017-05-01T02:00:00Z,30.2791,-87.5561,24.73,1111122 
DISL,ioos:station:DISL:PPTA:1,2017-05-01T02:30:00Z,30.2791,-87.5561,24.7,1111122 
DISL,ioos:station:DISL:PPTA:1,2017-05-01T03:00:00Z,30.2791,-87.5561,24.73,1111122 
DISL,ioos:station:DISL:PPTA:1,2017-05-01T03:30:00Z,30.2791,-87.5561,23.37,1111122 
DISL,ioos:station:DISL:PPTA:1,2017-05-01T04:00:00Z,30.2791,-87.5561,24.46,1111122 
DISL,ioos:station:DISL:PPTA:1,2017-05-01T04:30:00Z,30.2791,-87.5561,24.32,1111122 
DISL,ioos:station:DISL:PPTA:1,2017-05-01T05:00:00Z,30.2791,-87.5561,24.36,1111122 
DISL,ioos:station:DISL:PPTA:1,2017-05-01T05:30:00Z,30.2791,-87.5561,24.94,1111122 
DISL,ioos:station:DISL:PPTA:1,2017-05-01T06:00:00Z,30.2791,-87.5561,24.8,1111122 
DISL,ioos:station:DISL:PPTA:1,2017-05-01T06:30:00Z,30.2791,-87.5561,24.6,1111122 
DISL,ioos:station:DISL:PPTA:1,2017-05-01T07:00:00Z,30.2791,-87.5561,24.6,1111122 
DISL,ioos:station:DISL:PPTA:1,2017-05-01T07:30:00Z,30.2791,-87.5561,24.53,1111122 
DISL,ioos:station:DISL:PPTA:1,2017-05-01T08:00:00Z,30.2791,-87.5561,24.73,1111122 
DISL,ioos:station:DISL:PPTA:1,2017-05-01T08:30:00Z,30.2791,-87.5561,24.73,1111122 
DISL,ioos:station:DISL:PPTA:1,2017-05-01T09:00:00Z,30.2791,-87.5561,24.67,1111122 
DISL,ioos:station:DISL:PPTA:1,2017-05-01T09:30:00Z,30.2791,-87.5561,24.43,1111122 
DISL,ioos:station:DISL:PPTA:1,2017-05-01T10:00:00Z,30.2791,-87.5561,16.48,1111122 
DISL,ioos:station:DISL:PPTA:1,2017-05-01T10:30:00Z,30.2791,-87.5561,16.38,1111122 
DISL,ioos:station:DISL:PPTA:1,2017-05-01T11:00:00Z,30.2791,-87.5561,16.88,1111122 
DISL,ioos:station:DISL:PPTA:1,2017-05-01T11:30:00Z,30.2791,-87.5561,16.85,1111122 
DISL,ioos:station:DISL:PPTA:1,2017-05-01T12:00:00Z,30.2791,-87.5561,16.74,1111122 
DISL,ioos:station:DISL:PPTA:1,2017-05-01T12:30:00Z,30.2791,-87.5561,17.29,1111122 
DISL,ioos:station:DISL:PPTA:1,2017-05-01T13:00:00Z,30.2791,-87.5561,17.63,1111122 
DISL,ioos:station:DISL:PPTA:1,2017-05-01T13:30:00Z,30.2791,-87.5561,17.8,1111122 
DISL,ioos:station:DISL:PPTA:1,2017-05-01T14:00:00Z,30.2791,-87.5561,18.04,1111122 
DISL,ioos:station:DISL:PPTA:1,2017-05-01T14:30:00Z,30.2791,-87.5561,18.35,1111122 
DISL,ioos:station:DISL:PPTA:1,2017-05-01T15:00:00Z,30.2791,-87.5561,19.06,1111122 
DISL,ioos:station:DISL:PPTA:1,2017-05-01T15:30:00Z,30.2791,-87.5561,19.5,1111122 
DISL,ioos:station:DISL:PPTA:1,2017-05-01T16:00:00Z,30.2791,-87.5561,19.76,1111122 
DISL,ioos:station:DISL:PPTA:1,2017-05-01T16:30:00Z,30.2791,-87.5561,20.61,1111122 
DISL,ioos:station:DISL:PPTA:1,2017-05-01T17:00:00Z,30.2791,-87.5561,21.32,1111122 
DISL,ioos:station:DISL:PPTA:1,2017-05-01T17:30:00Z,30.2791,-87.5561,22.26,1111122 
DISL,ioos:station:DISL:PPTA:1,2017-05-01T18:00:00Z,30.2791,-87.5561,22.93,1111122 
DISL,ioos:station:DISL:PPTA:1,2017-05-01T18:30:00Z,30.2791,-87.5561,23.78,1111122 
DISL,ioos:station:DISL:PPTA:1,2017-05-01T19:00:00Z,30.2791,-87.5561,25.4,1111122 
DISL,ioos:station:DISL:PPTA:1,2017-05-01T19:30:00Z,30.2791,-87.5561,25.22,1111122 
DISL,ioos:station:DISL:PPTA:1,2017-05-01T20:00:00Z,30.2791,-87.5561,24.64,1111122 
DISL,ioos:station:DISL:PPTA:1,2017-05-01T20:30:00Z,30.2791,-87.5561,24.92,1111122 
DISL,ioos:station:DISL:PPTA:1,2017-05-01T21:00:00Z,30.2791,-87.5561,25.95,1111122 
DISL,ioos:station:DISL:PPTA:1,2017-05-01T21:30:00Z,30.2791,-87.5561,26.91,1111122 
DISL,ioos:station:DISL:PPTA:1,2017-05-01T22:00:00Z,30.2791,-87.5561,27.11,1111122 
DISL,ioos:station:DISL:PPTA:1,2017-05-01T22:30:00Z,30.2791,-87.5561,27.13,1111122 
DISL,ioos:station:DISL:PPTA:1,2017-05-01T23:00:00Z,30.2791,-87.5561,27.23,1111122 
DISL,ioos:station:DISL:PPTA:1,2017-05-01T23:30:00Z,30.2791,-87.5561,24.58,1111122 
DISL,ioos:station:DISL:PPTA:1,2017-05-02T00:00:00Z,30.2791,-87.5561,23.8,1111122 
DISL,ioos:station:DISL:PPTA:1,2017-05-02T00:30:00Z,30.2791,-87.5561,22.86,1111122 
DISL,ioos:station:DISL:PPTA:1,2017-05-02T01:00:00Z,30.2791,-87.5561,22.25,1111122 
DISL,ioos:station:DISL:PPTA:1,2017-05-02T01:30:00Z,30.2791,-87.5561,21.96,1111122 
DISL,ioos:station:DISL:PPTA:1,2017-05-02T02:00:00Z,30.2791,-87.5561,21.72,1111122 
DISL,ioos:station:DISL:PPTA:1,2017-05-02T02:30:00Z,30.2791,-87.5561,21.08,1111122 
DISL,ioos:station:DISL:PPTA:1,2017-05-02T03:00:00Z,30.2791,-87.5561,20.61,1111122 
DISL,ioos:station:DISL:PPTA:1,2017-05-02T03:30:00Z,30.2791,-87.5561,20.75,1111122 
DISL,ioos:station:DISL:PPTA:1,2017-05-02T04:00:00Z,30.2791,-87.5561,20.24,1111122 
DISL,ioos:station:DISL:PPTA:1,2017-05-02T04:30:00Z,30.2791,-87.5561,20.21,1111122 
DISL,ioos:station:DISL:PPTA:1,2017-05-02T05:00:00Z,30.2791,-87.5561,20.46,1111122 
DISL,ioos:station:DISL:PPTA:1,2017-05-02T05:30:00Z,30.2791,-87.5561,20.39,1111122 
DISL,ioos:station:DISL:PPTA:1,2017-05-02T06:00:00Z,30.2791,-87.5561,19.88,1111122 
DISL,ioos:station:DISL:PPTA:1,2017-05-02T06:30:00Z,30.2791,-87.5561,19.54,1111122 
DISL,ioos:station:DISL:PPTA:1,2017-05-02T07:00:00Z,30.2791,-87.5561,19.61,1111122 
DISL,ioos:station:DISL:PPTA:1,2017-05-02T07:30:00Z,30.2791,-87.5561,19.37,1111122 
DISL,ioos:station:DISL:PPTA:1,2017-05-02T08:00:00Z,30.2791,-87.5561,18.96,1111122 
DISL,ioos:station:DISL:PPTA:1,2017-05-02T08:30:00Z,30.2791,-87.5561,19.1,1111122 
DISL,ioos:station:DISL:PPTA:1,2017-05-02T09:00:00Z,30.2791,-87.5561,19.1,1111122 
DISL,ioos:station:DISL:PPTA:1,2017-05-02T09:30:00Z,30.2791,-87.5561,18.96,1111122 
DISL,ioos:station:DISL:PPTA:1,2017-05-02T10:00:00Z,30.2791,-87.5561,18.93,1111122 
DISL,ioos:station:DISL:PPTA:1,2017-05-02T10:30:00Z,30.2791,-87.5561,18.96,1111122 
DISL,ioos:station:DISL:PPTA:1,2017-05-02T11:00:00Z,30.2791,-87.5561,19.41,1111122 
DISL,ioos:station:DISL:PPTA:1,2017-05-02T11:30:00Z,30.2791,-87.5561,19.99,1111122 
DISL,ioos:station:DISL:PPTA:1,2017-05-02T12:00:00Z,30.2791,-87.5561,21.17,1111122 
DISL,ioos:station:DISL:PPTA:1,2017-05-02T12:30:00Z,30.2791,-87.5561,21.76,1111122 
DISL,ioos:station:DISL:PPTA:1,2017-05-02T13:00:00Z,30.2791,-87.5561,22.01,1111122 
DISL,ioos:station:DISL:PPTA:1,2017-05-02T13:30:00Z,30.2791,-87.5561,22.65,1111122 
DISL,ioos:station:DISL:PPTA:1,2017-05-02T14:00:00Z,30.2791,-87.5561,22.74,1111122 
DISL,ioos:station:DISL:PPTA:1,2017-05-02T14:30:00Z,30.2791,-87.5561,23.75,1111122 
DISL,ioos:station:DISL:PPTA:1,2017-05-02T15:30:00Z,30.2791,-87.5561,25.13,1111122 
DISL,ioos:station:DISL:PPTA:1,2017-05-02T16:00:00Z,30.2791,-87.5561,25.15,1111122 
DISL,ioos:station:DISL:PPTA:1,2017-05-02T16:30:00Z,30.2791,-87.5561,25.72,1111122 
DISL,ioos:station:DISL:PPTA:1,2017-05-02T17:00:00Z,30.2791,-87.5561,26.17,1111122 
DISL,ioos:station:DISL:PPTA:1,2017-05-02T17:30:00Z,30.2791,-87.5561,25.69,1111122 
DISL,ioos:station:DISL:PPTA:1,2017-05-02T18:00:00Z,30.2791,-87.5561,26.17,1111122 
DISL,ioos:station:DISL:PPTA:1,2017-05-02T18:30:00Z,30.2791,-87.5561,26.24,1111122 
DISL,ioos:station:DISL:PPTA:1,2017-05-02T19:00:00Z,30.2791,-87.5561,26.1,1111122 
DISL,ioos:station:DISL:PPTA:1,2017-05-02T19:30:00Z,30.2791,-87.5561,25.42,1111122 
DISL,ioos:station:DISL:PPTA:1,2017-05-02T20:00:00Z,30.2791,-87.5561,25.37,1111122 
DISL,ioos:station:DISL:PPTA:1,2017-05-02T20:30:00Z,30.2791,-87.5561,25.85,1111122 
DISL,ioos:station:DISL:PPTA:1,2017-05-02T21:00:00Z,30.2791,-87.5561,25.68,1111122 
DISL,ioos:station:DISL:PPTA:1,2017-05-02T21:30:00Z,30.2791,-87.5561,26.45,1111122 
DISL,ioos:station:DISL:PPTA:1,2017-05-02T22:00:00Z,30.2791,-87.5561,26.04,1111122 
DISL,ioos:station:DISL:PPTA:1,2017-05-02T22:30:00Z,30.2791,-87.5561,26.42,1111122 
DISL,ioos:station:DISL:PPTA:1,2017-05-02T23:00:00Z,30.2791,-87.5561,26.35,1111122 
DISL,ioos:station:DISL:PPTA:1,2017-05-02T23:30:00Z,30.2791,-87.5561,26.14,1111122 
DISL,ioos:station:DISL:PPTA:1,2017-05-03T00:00:00Z,30.2791,-87.5561,24.78,1111122 
DISL,ioos:station:DISL:PPTA:1,2017-05-03T00:30:00Z,30.2791,-87.5561,24.24,1111122 
DISL,ioos:station:DISL:PPTA:1,2017-05-03T01:00:00Z,30.2791,-87.5561,23.95,1111122 
DISL,ioos:station:DISL:PPTA:1,2017-05-03T01:30:00Z,30.2791,-87.5561,23.78,1111122 
DISL,ioos:station:DISL:PPTA:1,2017-05-03T02:00:00Z,30.2791,-87.5561,23.72,1111122 
DISL,ioos:station:DISL:PPTA:1,2017-05-03T02:30:00Z,30.2791,-87.5561,23.36,1111122 
DISL,ioos:station:DISL:PPTA:1,2017-05-03T03:00:00Z,30.2791,-87.5561,22.78,1111122 
DISL,ioos:station:DISL:PPTA:1,2017-05-03T03:30:00Z,30.2791,-87.5561,22.58,1111122 
DISL,ioos:station:DISL:PPTA:1,2017-05-03T04:00:00Z,30.2791,-87.5561,22.17,1111122 
DISL,ioos:station:DISL:PPTA:1,2017-05-03T04:30:00Z,30.2791,-87.5561,21.9,1111122 
DISL,ioos:station:DISL:PPTA:1,2017-05-03T05:00:00Z,30.2791,-87.5561,21.5,1111122 
DISL,ioos:station:DISL:PPTA:1,2017-05-03T05:30:00Z,30.2791,-87.5561,21.33,1111122 
DISL,ioos:station:DISL:PPTA:1,2017-05-03T06:00:00Z,30.2791,-87.5561,21.37,1111122 
DISL,ioos:station:DISL:PPTA:1,2017-05-03T06:30:00Z,30.2791,-87.5561,21.23,1111122 
DISL,ioos:station:DISL:PPTA:1,2017-05-03T07:00:00Z,30.2791,-87.5561,21.4,1111122 
DISL,ioos:station:DISL:PPTA:1,2017-05-03T07:30:00Z,30.2791,-87.5561,21.3,1111122 
DISL,ioos:station:DISL:PPTA:1,2017-05-03T08:00:00Z,30.2791,-87.5561,21.33,1111122 
DISL,ioos:station:DISL:PPTA:1,2017-05-03T08:30:00Z,30.2791,-87.5561,20.89,1111122 
DISL,ioos:station:DISL:PPTA:1,2017-05-03T09:00:00Z,30.2791,-87.5561,21.23,1111122 
DISL,ioos:station:DISL:PPTA:1,2017-05-03T09:30:00Z,30.2791,-87.5561,21.19,1111122 
DISL,ioos:station:DISL:PPTA:1,2017-05-03T10:00:00Z,30.2791,-87.5561,20.34,1111122 
DISL,ioos:station:DISL:PPTA:1,2017-05-03T10:30:00Z,30.2791,-87.5561,20.44,1111122 
DISL,ioos:station:DISL:PPTA:1,2017-05-03T11:00:00Z,30.2791,-87.5561,20.48,1111122 
DISL,ioos:station:DISL:PPTA:1,2017-05-03T11:30:00Z,30.2791,-87.5561,20.89,1111122 
DISL,ioos:station:DISL:PPTA:1,2017-05-03T12:00:00Z,30.2791,-87.5561,21.43,1111122 
DISL,ioos:station:DISL:PPTA:1,2017-05-03T12:30:00Z,30.2791,-87.5561,21.96,1111122 
DISL,ioos:station:DISL:PPTA:1,2017-05-03T13:00:00Z,30.2791,-87.5561,22.49,1111122 
DISL,ioos:station:DISL:PPTA:1,2017-05-03T13:30:00Z,30.2791,-87.5561,22.93,1111122 
DISL,ioos:station:DISL:PPTA:1,2017-05-03T14:00:00Z,30.2791,-87.5561,23.32,1111122 
DISL,ioos:station:DISL:PPTA:1,2017-05-03T14:30:00Z,30.2791,-87.5561,23.89,1111122 
DISL,ioos:station:DISL:PPTA:1,2017-05-03T15:00:00Z,30.2791,-87.5561,24.41,1111122 
DISL,ioos:station:DISL:PPTA:1,2017-05-03T15:30:00Z,30.2791,-87.5561,24.9,1111122 
DISL,ioos:station:DISL:PPTA:1,2017-05-03T16:00:00Z,30.2791,-87.5561,25.41,1111122 
DISL,ioos:station:DISL:PPTA:1,2017-05-03T16:30:00Z,30.2791,-87.5561,25.58,1111122 
DISL,ioos:station:DISL:PPTA:1,2017-05-03T17:00:00Z,30.2791,-87.5561,25.85,1111122 
DISL,ioos:station:DISL:PPTA:1,2017-05-03T17:30:00Z,30.2791,-87.5561,25.92,1111122 
DISL,ioos:station:DISL:PPTA:1,2017-05-03T18:00:00Z,30.2791,-87.5561,25.78,1111122 
DISL,ioos:station:DISL:PPTA:1,2017-05-03T18:30:00Z,30.2791,-87.5561,25.92,1111122 
DISL,ioos:station:DISL:PPTA:1,2017-05-03T19:00:00Z,30.2791,-87.5561,25.92,1111122 
DISL,ioos:station:DISL:PPTA:1,2017-05-03T19:30:00Z,30.2791,-87.5561,25.78,1111122 
DISL,ioos:station:DISL:PPTA:1,2017-05-03T20:00:00Z,30.2791,-87.5561,25.37,1111122 
DISL,ioos:station:DISL:PPTA:1,2017-05-03T20:30:00Z,30.2791,-87.5561,24.62,1111122 
DISL,ioos:station:DISL:PPTA:1,2017-05-03T21:00:00Z,30.2791,-87.5561,24.47,1111122 
DISL,ioos:station:DISL:PPTA:1,2017-05-03T21:30:00Z,30.2791,-87.5561,24.41,1111122 
DISL,ioos:station:DISL:PPTA:1,2017-05-03T22:00:00Z,30.2791,-87.5561,23.74,1111122 
DISL,ioos:station:DISL:PPTA:1,2017-05-03T22:30:00Z,30.2791,-87.5561,22.72,1111122 
DISL,ioos:station:DISL:PPTA:1,2017-05-03T23:00:00Z,30.2791,-87.5561,20.17,1111122 
DISL,ioos:station:DISL:PPTA:1,2017-05-03T23:30:00Z,30.2791,-87.5561,19.02,1111122 
DISL,ioos:station:DISL:PPTA:1,2017-05-04T00:00:00Z,30.2791,-87.5561,19.32,1111122 
DISL,ioos:station:DISL:PPTA:1,2017-05-04T00:30:00Z,30.2791,-87.5561,20.48,1111122 
DISL,ioos:station:DISL:PPTA:1,2017-05-04T01:00:00Z,30.2791,-87.5561,21.64,1111122 
DISL,ioos:station:DISL:PPTA:1,2017-05-04T01:30:00Z,30.2791,-87.5561,22.32,1111122 
DISL,ioos:station:DISL:PPTA:1,2017-05-04T02:00:00Z,30.2791,-87.5561,22.52,1111122 
DISL,ioos:station:DISL:PPTA:1,2017-05-04T02:30:00Z,30.2791,-87.5561,23.46,1111122 
DISL,ioos:station:DISL:PPTA:1,2017-05-04T03:00:00Z,30.2791,-87.5561,24.48,1111122 
DISL,ioos:station:DISL:PPTA:1,2017-05-04T03:30:00Z,30.2791,-87.5561,24.75,1111122 
DISL,ioos:station:DISL:PPTA:1,2017-05-04T04:00:00Z,30.2791,-87.5561,24.54,1111122 
DISL,ioos:station:DISL:PPTA:1,2017-05-04T04:30:00Z,30.2791,-87.5561,20.47,1111122 
DISL,ioos:station:DISL:PPTA:1,2017-05-04T05:00:00Z,30.2791,-87.5561,19.57,1111122 
DISL,ioos:station:DISL:PPTA:1,2017-05-04T05:30:00Z,30.2791,-87.5561,18.87,1111122 
DISL,ioos:station:DISL:PPTA:1,2017-05-04T06:00:00Z,30.2791,-87.5561,17.51,1111122 
DISL,ioos:station:DISL:PPTA:1,2017-05-04T06:30:00Z,30.2791,-87.5561,17.35,1111122 
DISL,ioos:station:DISL:PPTA:1,2017-05-04T07:00:00Z,30.2791,-87.5561,16.5,1111122 
DISL,ioos:station:DISL:PPTA:1,2017-05-04T07:30:00Z,30.2791,-87.5561,16.4,1111122 
DISL,ioos:station:DISL:PPTA:1,2017-05-04T08:00:00Z,30.2791,-87.5561,16.34,1111122 
DISL,ioos:station:DISL:PPTA:1,2017-05-04T08:30:00Z,30.2791,-87.5561,18.15,1111122 
DISL,ioos:station:DISL:PPTA:1,2017-05-04T09:00:00Z,30.2791,-87.5561,17.49,1111122 
DISL,ioos:station:DISL:PPTA:1,2017-05-04T09:30:00Z,30.2791,-87.5561,17.36,1111122 
DISL,ioos:station:DISL:PPTA:1,2017-05-04T10:00:00Z,30.2791,-87.5561,16.81,1111122 
DISL,ioos:station:DISL:PPTA:1,2017-05-04T10:30:00Z,30.2791,-87.5561,17.02,1111122 
DISL,ioos:station:DISL:PPTA:1,2017-05-04T11:00:00Z,30.2791,-87.5561,16.81,1111122 
DISL,ioos:station:DISL:PPTA:1,2017-05-04T11:30:00Z,30.2791,-87.5561,17.02,1111122 
DISL,ioos:station:DISL:PPTA:1,2017-05-04T12:00:00Z,30.2791,-87.5561,18.38,1111122 
DISL,ioos:station:DISL:PPTA:1,2017-05-04T12:30:00Z,30.2791,-87.5561,19.03,1111122 
DISL,ioos:station:DISL:PPTA:1,2017-05-04T13:00:00Z,30.2791,-87.5561,20.59,1111122 
DISL,ioos:station:DISL:PPTA:1,2017-05-04T13:30:00Z,30.2791,-87.5561,21.47,1111122 
DISL,ioos:station:DISL:PPTA:1,2017-05-04T14:00:00Z,30.2791,-87.5561,21.76,1111122 
DISL,ioos:station:DISL:PPTA:1,2017-05-04T14:30:00Z,30.2791,-87.5561,22.03,1111122 
DISL,ioos:station:DISL:PPTA:1,2017-05-04T15:00:00Z,30.2791,-87.5561,22.36,1111122 
DISL,ioos:station:DISL:PPTA:1,2017-05-04T15:30:00Z,30.2791,-87.5561,22.77,1111122 
DISL,ioos:station:DISL:PPTA:1,2017-05-04T16:00:00Z,30.2791,-87.5561,23.21,1111122 
DISL,ioos:station:DISL:PPTA:1,2017-05-04T16:30:00Z,30.2791,-87.5561,23.03,1111122 
DISL,ioos:station:DISL:PPTA:1,2017-05-04T17:00:00Z,30.2791,-87.5561,23.57,1111122 
DISL,ioos:station:DISL:PPTA:1,2017-05-04T17:30:00Z,30.2791,-87.5561,23.37,1111122 
DISL,ioos:station:DISL:PPTA:1,2017-05-04T18:00:00Z,30.2791,-87.5561,23.13,1111122 
DISL,ioos:station:DISL:PPTA:1,2017-05-04T18:30:00Z,30.2791,-87.5561,23.34,1111122 
DISL,ioos:station:DISL:PPTA:1,2017-05-04T19:00:00Z,30.2791,-87.5561,23.17,1111122 
DISL,ioos:station:DISL:PPTA:1,2017-05-04T19:30:00Z,30.2791,-87.5561,24.32,1111122 
DISL,ioos:station:DISL:PPTA:1,2017-05-04T20:00:00Z,30.2791,-87.5561,24.07,1111122 
DISL,ioos:station:DISL:PPTA:1,2017-05-04T20:30:00Z,30.2791,-87.5561,21.61,1111122 
DISL,ioos:station:DISL:PPTA:1,2017-05-04T21:00:00Z,30.2791,-87.5561,20.67,1111122 
DISL,ioos:station:DISL:PPTA:1,2017-05-04T21:30:00Z,30.2791,-87.5561,20.61,1111122 
DISL,ioos:station:DISL:PPTA:1,2017-05-04T22:00:00Z,30.2791,-87.5561,19.91,1111122 
DISL,ioos:station:DISL:PPTA:1,2017-05-04T22:30:00Z,30.2791,-87.5561,19.16,1111122 
DISL,ioos:station:DISL:PPTA:1,2017-05-04T23:00:00Z,30.2791,-87.5561,19.0,1111122 
DISL,ioos:station:DISL:PPTA:1,2017-05-04T23:30:00Z,30.2791,-87.5561,19.04,1111122 
DISL,ioos:station:DISL:PPTA:1,2017-05-05T00:00:00Z,30.2791,-87.5561,18.57,1111122 
DISL,ioos:station:DISL:PPTA:1,2017-05-05T00:30:00Z,30.2791,-87.5561,17.65,1111122 
DISL,ioos:station:DISL:PPTA:1,2017-05-05T01:00:00Z,30.2791,-87.5561,17.14,1111122 
DISL,ioos:station:DISL:PPTA:1,2017-05-05T01:30:00Z,30.2791,-87.5561,16.98,1111122 
DISL,ioos:station:DISL:PPTA:1,2017-05-05T02:00:00Z,30.2791,-87.5561,16.5,1111122 
DISL,ioos:station:DISL:PPTA:1,2017-05-05T02:30:00Z,30.2791,-87.5561,16.47,1111122 
DISL,ioos:station:DISL:PPTA:1,2017-05-05T03:00:00Z,30.2791,-87.5561,15.93,1111122 
DISL,ioos:station:DISL:PPTA:1,2017-05-05T03:30:00Z,30.2791,-87.5561,15.39,1111122 
DISL,ioos:station:DISL:PPTA:1,2017-05-05T04:00:00Z,30.2791,-87.5561,15.05,1111122 
DISL,ioos:station:DISL:PPTA:1,2017-05-05T04:30:00Z,30.2791,-87.5561,14.44,1111122 
DISL,ioos:station:DISL:PPTA:1,2017-05-05T05:00:00Z,30.2791,-87.5561,13.9,1111122 
DISL,ioos:station:DISL:PPTA:1,2017-05-05T05:30:00Z,30.2791,-87.5561,13.97,1111122 
DISL,ioos:station:DISL:PPTA:1,2017-05-05T06:00:00Z,30.2791,-87.5561,13.6,1111122 
DISL,ioos:station:DISL:PPTA:1,2017-05-05T06:30:00Z,30.2791,-87.5561,13.5,1111122 
DISL,ioos:station:DISL:PPTA:1,2017-05-05T07:00:00Z,30.2791,-87.5561,13.26,1111122 
DISL,ioos:station:DISL:PPTA:1,2017-05-05T07:30:00Z,30.2791,-87.5561,13.06,1111122 
DISL,ioos:station:DISL:PPTA:1,2017-05-05T08:00:00Z,30.2791,-87.5561,13.09,1111122 
DISL,ioos:station:DISL:PPTA:1,2017-05-05T08:30:00Z,30.2791,-87.5561,13.07,1111122 
DISL,ioos:station:DISL:PPTA:1,2017-05-05T09:00:00Z,30.2791,-87.5561,12.9,1111122 
DISL,ioos:station:DISL:PPTA:1,2017-05-05T09:30:00Z,30.2791,-87.5561,12.79,1111122 
DISL,ioos:station:DISL:PPTA:1,2017-05-05T10:00:00Z,30.2791,-87.5561,12.59,1111122 
DISL,ioos:station:DISL:PPTA:1,2017-05-05T10:30:00Z,30.2791,-87.5561,12.73,1111122 
DISL,ioos:station:DISL:PPTA:1,2017-05-05T11:00:00Z,30.2791,-87.5561,12.97,1111122 
DISL,ioos:station:DISL:PPTA:1,2017-05-05T11:30:00Z,30.2791,-87.5561,13.03,1111122 
DISL,ioos:station:DISL:PPTA:1,2017-05-05T12:00:00Z,30.2791,-87.5561,13.44,1111122 
DISL,ioos:station:DISL:PPTA:1,2017-05-05T12:30:00Z,30.2791,-87.5561,14.25,1111122 
DISL,ioos:station:DISL:PPTA:1,2017-05-05T13:00:00Z,30.2791,-87.5561,15.09,1111122 
DISL,ioos:station:DISL:PPTA:1,2017-05-05T13:30:00Z,30.2791,-87.5561,15.79,1111122 
DISL,ioos:station:DISL:PPTA:1,2017-05-05T14:00:00Z,30.2791,-87.5561,16.32,1111122 
DISL,ioos:station:DISL:PPTA:1,2017-05-05T14:30:00Z,30.2791,-87.5561,17.03,1111122 
DISL,ioos:station:DISL:PPTA:1,2017-05-05T15:00:00Z,30.2791,-87.5561,18.02,1111122 
DISL,ioos:station:DISL:PPTA:1,2017-05-05T15:30:00Z,30.2791,-87.5561,17.73,1111122 
DISL,ioos:station:DISL:PPTA:1,2017-05-05T16:00:00Z,30.2791,-87.5561,18.07,1111122 
DISL,ioos:station:DISL:PPTA:1,2017-05-05T16:30:00Z,30.2791,-87.5561,18.14,1111122 
DISL,ioos:station:DISL:PPTA:1,2017-05-05T17:00:00Z,30.2791,-87.5561,17.66,1111122 
DISL,ioos:station:DISL:PPTA:1,2017-05-05T17:30:00Z,30.2791,-87.5561,17.81,1111122 
DISL,ioos:station:DISL:PPTA:1,2017-05-05T18:00:00Z,30.2791,-87.5561,18.57,1111122 
DISL,ioos:station:DISL:PPTA:1,2017-05-05T18:30:00Z,30.2791,-87.5561,18.46,1111122 
DISL,ioos:station:DISL:PPTA:1,2017-05-05T19:00:00Z,30.2791,-87.5561,18.9,1111122 
DISL,ioos:station:DISL:PPTA:1,2017-05-05T19:30:00Z,30.2791,-87.5561,18.48,1111122 
DISL,ioos:station:DISL:PPTA:1,2017-05-05T20:00:00Z,30.2791,-87.5561,18.8,1111122 
DISL,ioos:station:DISL:PPTA:1,2017-05-05T20:30:00Z,30.2791,-87.5561,18.97,1111122 
DISL,ioos:station:DISL:PPTA:1,2017-05-05T21:00:00Z,30.2791,-87.5561,18.97,1111122 
DISL,ioos:station:DISL:PPTA:1,2017-05-05T21:30:00Z,30.2791,-87.5561,19.65,1111122 
DISL,ioos:station:DISL:PPTA:1,2017-05-05T22:00:00Z,30.2791,-87.5561,20.13,1111122 
DISL,ioos:station:DISL:PPTA:1,2017-05-05T22:30:00Z,30.2791,-87.5561,20.77,1111122 
DISL,ioos:station:DISL:PPTA:1,2017-05-05T23:00:00Z,30.2791,-87.5561,20.74,1111122 
DISL,ioos:station:DISL:PPTA:1,2017-05-05T23:30:00Z,30.2791,-87.5561,21.04,1111122 
DISL,ioos:station:DISL:PPTA:1,2017-05-06T00:00:00Z,30.2791,-87.5561,20.97,1111122 
DISL,ioos:station:DISL:PPTA:1,2017-05-06T00:30:00Z,30.2791,-87.5561,20.22,1111122 
DISL,ioos:station:DISL:PPTA:1,2017-05-06T01:00:00Z,30.2791,-87.5561,19.59,1111122 
DISL,ioos:station:DISL:PPTA:1,2017-05-06T01:30:00Z,30.2791,-87.5561,19.11,1111122 
DISL,ioos:station:DISL:PPTA:1,2017-05-06T02:00:00Z,30.2791,-87.5561,18.37,1111122 
DISL,ioos:station:DISL:PPTA:1,2017-05-06T02:30:00Z,30.2791,-87.5561,18.44,1111122 
DISL,ioos:station:DISL:PPTA:1,2017-05-06T03:00:00Z,30.2791,-87.5561,18.48,1111122 
DISL,ioos:station:DISL:PPTA:1,2017-05-06T03:30:00Z,30.2791,-87.5561,17.97,1111122 
DISL,ioos:station:DISL:PPTA:1,2017-05-06T04:00:00Z,30.2791,-87.5561,17.94,1111122 
DISL,ioos:station:DISL:PPTA:1,2017-05-06T04:30:00Z,30.2791,-87.5561,17.9,1111122 
DISL,ioos:station:DISL:PPTA:1,2017-05-06T05:00:00Z,30.2791,-87.5561,17.49,1111122 
DISL,ioos:station:DISL:PPTA:1,2017-05-06T05:30:00Z,30.2791,-87.5561,17.15,1111122 
DISL,ioos:station:DISL:PPTA:1,2017-05-06T06:00:00Z,30.2791,-87.5561,16.82,1111122 
DISL,ioos:station:DISL:PPTA:1,2017-05-06T06:30:00Z,30.2791,-87.5561,16.45,1111122 
DISL,ioos:station:DISL:PPTA:1,2017-05-06T07:00:00Z,30.2791,-87.5561,16.42,1111122 
DISL,ioos:station:DISL:PPTA:1,2017-05-06T07:30:00Z,30.2791,-87.5561,16.22,1111122 
DISL,ioos:station:DISL:PPTA:1,2017-05-06T08:00:00Z,30.2791,-87.5561,15.91,1111122 
DISL,ioos:station:DISL:PPTA:1,2017-05-06T08:30:00Z,30.2791,-87.5561,15.74,1111122 
DISL,ioos:station:DISL:PPTA:1,2017-05-06T09:00:00Z,30.2791,-87.5561,14.92,1111122 
DISL,ioos:station:DISL:PPTA:1,2017-05-06T09:30:00Z,30.2791,-87.5561,14.52,1111122 
DISL,ioos:station:DISL:PPTA:1,2017-05-06T10:00:00Z,30.2791,-87.5561,14.79,1111122 
DISL,ioos:station:DISL:PPTA:1,2017-05-06T10:30:00Z,30.2791,-87.5561,14.66,1111122 
DISL,ioos:station:DISL:PPTA:1,2017-05-06T11:00:00Z,30.2791,-87.5561,14.66,1111122 
DISL,ioos:station:DISL:PPTA:1,2017-05-06T11:30:00Z,30.2791,-87.5561,14.53,1111122 
DISL,ioos:station:DISL:PPTA:1,2017-05-06T12:00:00Z,30.2791,-87.5561,14.48,1111122 
DISL,ioos:station:DISL:PPTA:1,2017-05-06T12:30:00Z,30.2791,-87.5561,15.46,1111122 
DISL,ioos:station:DISL:PPTA:1,2017-05-06T13:00:00Z,30.2791,-87.5561,16.16,1111122 
DISL,ioos:station:DISL:PPTA:1,2017-05-06T13:30:00Z,30.2791,-87.5561,16.59,1111122 
DISL,ioos:station:DISL:PPTA:1,2017-05-06T14:00:00Z,30.2791,-87.5561,18.04,1111122 
DISL,ioos:station:DISL:PPTA:1,2017-05-06T14:30:00Z,30.2791,-87.5561,18.88,1111122 
DISL,ioos:station:DISL:PPTA:1,2017-05-06T15:00:00Z,30.2791,-87.5561,19.55,1111122 
DISL,ioos:station:DISL:PPTA:1,2017-05-06T15:30:00Z,30.2791,-87.5561,20.13,1111122 
DISL,ioos:station:DISL:PPTA:1,2017-05-06T16:00:00Z,30.2791,-87.5561,20.59,1111122 
DISL,ioos:station:DISL:PPTA:1,2017-05-06T16:30:00Z,30.2791,-87.5561,21.23,1111122 
DISL,ioos:station:DISL:PPTA:1,2017-05-06T17:00:00Z,30.2791,-87.5561,21.4,1111122 
DISL,ioos:station:DISL:PPTA:1,2017-05-06T17:30:00Z,30.2791,-87.5561,21.64,1111122 
DISL,ioos:station:DISL:PPTA:1,2017-05-06T18:00:00Z,30.2791,-87.5561,21.75,1111122 
DISL,ioos:station:DISL:PPTA:1,2017-05-06T18:30:00Z,30.2791,-87.5561,22.05,1111122 
DISL,ioos:station:DISL:PPTA:1,2017-05-06T19:00:00Z,30.2791,-87.5561,21.68,1111122 
DISL,ioos:station:DISL:PPTA:1,2017-05-06T19:30:00Z,30.2791,-87.5561,21.98,1111122 
DISL,ioos:station:DISL:PPTA:1,2017-05-06T20:00:00Z,30.2791,-87.5561,21.71,1111122 
DISL,ioos:station:DISL:PPTA:1,2017-05-06T20:30:00Z,30.2791,-87.5561,21.98,1111122 
DISL,ioos:station:DISL:PPTA:1,2017-05-06T21:00:00Z,30.2791,-87.5561,22.91,1111122 
DISL,ioos:station:DISL:PPTA:1,2017-05-06T21:30:00Z,30.2791,-87.5561,22.28,1111122 
DISL,ioos:station:DISL:PPTA:1,2017-05-06T22:00:00Z,30.2791,-87.5561,22.79,1111122 
DISL,ioos:station:DISL:PPTA:1,2017-05-06T22:30:00Z,30.2791,-87.5561,22.38,1111122 
DISL,ioos:station:DISL:PPTA:1,2017-05-06T23:00:00Z,30.2791,-87.5561,22.48,1111122 
DISL,ioos:station:DISL:PPTA:1,2017-05-06T23:30:00Z,30.2791,-87.5561,22.14,1111122 
DISL,ioos:station:DISL:PPTA:1,2017-05-07T00:00:00Z,30.2791,-87.5561,21.77,1111122 